Regional Weather Roundup
Issued by NWS Green Bay, WI

Home | Current Version | Previous Version | Graphics & Text | Print | Product List | Glossary Off
Versions: 1 2 3 4 5 6 7 8 9 10 11 12 13 14 15 16 17 18 19 20 21 22 23 24 25 26 27 28 29 30 31 32 33 34 35 36 37 38 39 40 41 42 43 44 45 46 47 48 49 50

000
ASUS43 KGRB 042110
RWRGRB

NORTH-CENTRAL AND NORTHEAST WISCONSIN REGIONAL WEATHER ROUNDUP
NATIONAL WEATHER SERVICE GREEN BAY WI
400 PM CDT MON MAY 04 2015

WIZ005-009-010>012-018-019-042200-
NORTH CENTRAL WISCONSIN

CITY           SKY/WX    TMP DP  RH WIND       PRES   REMARKS
IRONWOOD       MOSUNNY   59  25  27 N7        30.18S
MANITOWISH WTR MOSUNNY   62  21  21 N3        30.19S
ARBOR VITAE    MOSUNNY   64  22  20 NE7       30.18S
EAGLE RIVER    MOSUNNY   65  15  14 NW6       30.17S
LAND O LAKES   MOSUNNY   64  24  21 N7        30.19S
RHINELANDER    SUNNY     65  28  24 NE7       30.17F
PHILLIPS       SUNNY     65  28  24 N7        30.16S
ANTIGO         MOSUNNY   65  32  28 CALM      30.17R
TOMAHAWK       MOSUNNY   66  29  25 CALM      30.18S
MERRILL        MOSUNNY   68  31  25 NE9       30.16R
$$

WIZ013-073-042200-
NORTHEAST WISCONSIN

CITY           SKY/WX    TMP DP  RH WIND       PRES   REMARKS
IRON MOUNTAIN  SUNNY     68  27  21 N7        30.14S
MARINETTE      SUNNY     63  37  39 E16       30.16S
OCONTO         SUNNY     67  42  39 E9        30.14S
$$

WIZ017-030-035>037-045-042200-
CENTRAL WISCONSIN

CITY           SKY/WX    TMP DP  RH WIND       PRES   REMARKS
MEDFORD        SUNNY     67  31  26 N7G16     30.16S
WAUSAU         MOSUNNY   69  28  21 N8        30.14S
MOSINEE        SUNNY     68  34  28 CALM      30.16S
MARSHFIELD     MOSUNNY   70  34  26 N9        30.15F
WISC RAPIDS    MOSUNNY   70  31  23 NE5       30.15S
STEVENS POINT  MOSUNNY   69  34  27 W6        30.14F
WAUPACA        MOSUNNY   75  35  22 NW3       30.13S
SHAWANO        MOSUNNY   75  31  20 W8        30.13S
CLINTONVILLE   MOSUNNY   72  34  25 NE3       30.12F
$$

WIZ038-039-048-051-042200-
FOX VALLEY

CITY           SKY/WX    TMP DP  RH WIND       PRES   REMARKS
NWS GREEN BAY  MOSUNNY   74  40  29 SW7       30.12F
APPLETON       MOSUNNY   72  37  28 VRB5      30.14S
OSHKOSH        MOSUNNY   70  41  34 VRB7      30.14S
FOND DU LAC    MOSUNNY   72  44  36 N7        30.14S
$$

WIZ022-050-052-042200-
EAST CENTRAL WISCONSIN

CITY           SKY/WX    TMP DP  RH WIND       PRES   REMARKS
STURGEON BAY   SUNNY     63  41  45 E12G17    30.19R
MANITOWOC      SUNNY     62  41  46 E13       30.17R
SHEBOYGAN      SUNNY     61  42  49 E14       30.17R
$$

LMZ563-521-522-541>543-042200-
LAKESHORE

STATION/POSITION TIME  TEMP    WIND        PRES    VSBY  WAVE
                       AIR SEA DIR/SP/G                  HT/PER
                 (UTC) (F)     (DEG/KT/KT) (MB)    (MI)  (FT/S)
SHEBOYGAN LKSHOR 2100   50      70/  4/  7 1022.0F
KEWAUNEE LKSHORE 2100   52      70/  5/  9 1021.0R
NORTHPORT PIER   2100   51     100/  5/  9 1021.7R
SISTER BAY LKSHO 2000   71      30/  8/ 14   N/A
CHAMBERS ISLAND  2100   58      60/ 12/ 15 1021.3R
MENOMINEE LKSHOR 2100   57      50/ 13/ 15 1021.6F
$$



USA.gov is the U.S. government's official web portal to all federal, state and local government web resources and services.